WAT8046 MHTG-MNMG

Flight info

Callsign WAT8046
Flight time 0h 28m
Altitude 17000
Route KOPAL KOPAL1A
Aircraft A320/M-SDE3FGHIRWY/LB1

Departure

Time 2026-04-23 11:48
Airport Toncontín Airport (MHTG)

Arrival

Time 2026-04-23 12:16
Airport Augusto C. Sandino (Managua) International Airport (MNMG)
Time Latitude Longitude Altitude Speed Heading
2026-04-23 11:32 14.06062 -87.21880 3274 ft 0 kts 288°
2026-04-23 11:40 14.06060 -87.21873 3272 ft 3 kts 288°
2026-04-23 11:41 14.06054 -87.21855 3273 ft 3 kts 288°
2026-04-23 11:41 14.06048 -87.21839 3270 ft 2 kts 284°
2026-04-23 11:41 14.06050 -87.21822 3270 ft 3 kts 210°
2026-04-23 11:41 14.06054 -87.21819 3270 ft 0 kts 197°
2026-04-23 11:43 14.06048 -87.21821 3271 ft 4 kts 196°
2026-04-23 11:43 14.06025 -87.21828 3274 ft 2 kts 196°
2026-04-23 11:44 14.06011 -87.21832 3274 ft 4 kts 196°
2026-04-23 11:44 14.05985 -87.21840 3276 ft 3 kts 196°
2026-04-23 11:44 14.05930 -87.21860 3279 ft 15 kts 200°
2026-04-23 11:44 14.05839 -87.21896 3285 ft 13 kts 200°
2026-04-23 11:45 14.05764 -87.21924 3288 ft 11 kts 200°
2026-04-23 11:45 14.05692 -87.21951 3292 ft 11 kts 199°
2026-04-23 11:45 14.05607 -87.21980 3296 ft 15 kts 199°
2026-04-23 11:45 14.05512 -87.22012 3301 ft 14 kts 197°
2026-04-23 11:46 14.05424 -87.22039 3303 ft 13 kts 194°
2026-04-23 11:46 14.05355 -87.22052 3305 ft 7 kts 162°
2026-04-23 11:46 14.05311 -87.22032 3307 ft 6 kts 143°
2026-04-23 11:46 14.05306 -87.21995 3307 ft 5 kts 38°
2026-04-23 11:47 14.05315 -87.21993 3307 ft 0 kts 15°
2026-04-23 11:47 14.05634 -87.21885 3294 ft 92 kts 19°
2026-04-23 11:47 14.06478 -87.21583 3275 ft 160 kts 19°
2026-04-23 11:48 14.07571 -87.21193 3921 ft 159 kts 19°
2026-04-23 11:48 14.08600 -87.20828 4861 ft 151 kts 19°
2026-04-23 11:48 14.09589 -87.20480 5509 ft 154 kts 19°
2026-04-23 11:48 14.10600 -87.20124 6150 ft 154 kts 20°
2026-04-23 11:49 14.11590 -87.19655 6701 ft 163 kts 24°
2026-04-23 11:49 14.12692 -87.19145 6973 ft 192 kts 32°
2026-04-23 11:49 14.13528 -87.17978 7322 ft 221 kts 75°
2026-04-23 11:49 14.13406 -87.16337 7725 ft 248 kts 115°
2026-04-23 11:50 14.12209 -87.14970 8242 ft 274 kts 150°
2026-04-23 11:50 14.10362 -87.14262 8849 ft 293 kts 167°
2026-04-23 11:50 14.08321 -87.13909 9733 ft 301 kts 173°
2026-04-23 11:50 14.06198 -87.13646 10453 ft 317 kts 173°
2026-04-23 11:51 14.03928 -87.13332 10855 ft 342 kts 172°
2026-04-23 11:51 14.01500 -87.12914 11235 ft 365 kts 169°
2026-04-23 11:51 13.98969 -87.12389 11975 ft 375 kts 168°
2026-04-23 11:51 13.96408 -87.11796 12902 ft 380 kts 167°
2026-04-23 11:52 13.93821 -87.11162 13864 ft 384 kts 167°
2026-04-23 11:52 13.91211 -87.10506 14710 ft 388 kts 167°
2026-04-23 11:52 13.88572 -87.09843 15494 ft 393 kts 167°
2026-04-23 11:52 13.85896 -87.09182 16317 ft 398 kts 167°
2026-04-23 11:53 13.83146 -87.08513 16782 ft 415 kts 167°
2026-04-23 11:53 13.80259 -87.07820 16951 ft 438 kts 167°
2026-04-23 11:53 13.77221 -87.07097 16990 ft 453 kts 168°
2026-04-23 11:53 13.74171 -87.06373 16971 ft 448 kts 167°
2026-04-23 11:54 13.71137 -87.05647 16976 ft 447 kts 167°
2026-04-23 11:54 13.68102 -87.04918 16975 ft 447 kts 167°
2026-04-23 11:54 13.65077 -87.04192 16975 ft 447 kts 167°
2026-04-23 11:54 13.62043 -87.03463 16954 ft 447 kts 167°
2026-04-23 11:55 13.59017 -87.02734 16953 ft 447 kts 167°
2026-04-23 11:55 13.55991 -87.02003 16953 ft 447 kts 167°
2026-04-23 11:55 13.53004 -87.01283 16953 ft 447 kts 167°
2026-04-23 11:55 13.49980 -87.00558 16950 ft 447 kts 167°
2026-04-23 11:56 13.46951 -86.99834 16924 ft 446 kts 167°
2026-04-23 11:56 13.43929 -86.99110 16924 ft 446 kts 167°
2026-04-23 11:56 13.40908 -86.98389 16924 ft 446 kts 167°
2026-04-23 11:56 13.37883 -86.97668 16923 ft 446 kts 167°
2026-04-23 11:57 13.34863 -86.96950 16922 ft 446 kts 167°
2026-04-23 11:57 13.31840 -86.96227 16899 ft 446 kts 167°
2026-04-23 11:57 13.28824 -86.95503 16899 ft 446 kts 167°
2026-04-23 11:57 13.25802 -86.94776 16898 ft 446 kts 167°
2026-04-23 11:58 13.22780 -86.94050 16899 ft 446 kts 167°
2026-04-23 11:58 13.19752 -86.93324 16898 ft 446 kts 168°
2026-04-23 11:58 13.16720 -86.92599 16877 ft 447 kts 167°
2026-04-23 11:58 13.13694 -86.91874 16875 ft 447 kts 167°
2026-04-23 11:59 13.10669 -86.91134 16877 ft 447 kts 167°
2026-04-23 11:59 13.07644 -86.90377 16882 ft 447 kts 166°
2026-04-23 11:59 13.04625 -86.89610 16886 ft 447 kts 166°
2026-04-23 11:59 13.01643 -86.88851 16871 ft 447 kts 166°
2026-04-23 12:00 12.98623 -86.88085 16872 ft 447 kts 166°
2026-04-23 12:00 12.95600 -86.87321 16872 ft 447 kts 166°
2026-04-23 12:00 12.92583 -86.86562 16872 ft 447 kts 167°
2026-04-23 12:00 12.89561 -86.85809 16859 ft 447 kts 167°
2026-04-23 12:01 12.86587 -86.85069 16665 ft 432 kts 167°
2026-04-23 12:01 12.83712 -86.84350 16420 ft 418 kts 167°
2026-04-23 12:01 12.80910 -86.83646 16177 ft 409 kts 166°
2026-04-23 12:01 12.78154 -86.82955 15937 ft 407 kts 166°
2026-04-23 12:02 12.75409 -86.82265 15699 ft 405 kts 166°
2026-04-23 12:02 12.72669 -86.81579 15453 ft 404 kts 166°
2026-04-23 12:02 12.69979 -86.80906 15226 ft 403 kts 166°
2026-04-23 12:02 12.67255 -86.80224 14987 ft 402 kts 166°
2026-04-23 12:03 12.64544 -86.79548 14756 ft 400 kts 166°
2026-04-23 12:03 12.61846 -86.78876 14524 ft 399 kts 166°
2026-04-23 12:03 12.59169 -86.78206 14084 ft 393 kts 166°
2026-04-23 12:03 12.56518 -86.77540 13444 ft 392 kts 166°
2026-04-23 12:04 12.53874 -86.76874 12817 ft 389 kts 166°
2026-04-23 12:04 12.51259 -86.76218 12202 ft 386 kts 166°
2026-04-23 12:04 12.48661 -86.75568 11586 ft 383 kts 166°
2026-04-23 12:04 12.46074 -86.74921 10956 ft 381 kts 166°
2026-04-23 12:05 12.43540 -86.74287 10775 ft 367 kts 166°
2026-04-23 12:05 12.41113 -86.73681 10653 ft 352 kts 166°
2026-04-23 12:05 12.38782 -86.73101 10535 ft 339 kts 166°
2026-04-23 12:05 12.36534 -86.72543 10418 ft 327 kts 165°
2026-04-23 12:06 12.34362 -86.72006 10298 ft 316 kts 166°
2026-04-23 12:06 12.32265 -86.71460 10132 ft 307 kts 160°
2026-04-23 12:06 12.28819 -86.69129 9615 ft 302 kts 128°
2026-04-23 12:07 12.27610 -86.67392 9289 ft 298 kts 122°
2026-04-23 12:07 12.26446 -86.65638 8897 ft 299 kts 123°
2026-04-23 12:07 12.25281 -86.63903 8638 ft 294 kts 123°
2026-04-23 12:07 12.24120 -86.62183 8292 ft 293 kts 123°
2026-04-23 12:08 12.22960 -86.60472 7966 ft 292 kts 123°
2026-04-23 12:08 12.21809 -86.58775 7647 ft 290 kts 123°
2026-04-23 12:08 12.20667 -86.57086 7328 ft 288 kts 122°
2026-04-23 12:08 12.19533 -86.55406 7045 ft 285 kts 122°
2026-04-23 12:09 12.18541 -86.53683 6757 ft 279 kts 110°
2026-04-23 12:09 12.18029 -86.51792 6474 ft 274 kts 97°
2026-04-23 12:09 12.17805 -86.49873 6233 ft 271 kts 94°
2026-04-23 12:09 12.17619 -86.47988 5883 ft 269 kts 94°
2026-04-23 12:10 12.17417 -86.46120 5534 ft 258 kts 95°
2026-04-23 12:10 12.17217 -86.44333 5200 ft 248 kts 95°
2026-04-23 12:10 12.17027 -86.42619 4883 ft 238 kts 95°
2026-04-23 12:10 12.16845 -86.40976 4574 ft 227 kts 95°
2026-04-23 12:11 12.16670 -86.39402 4269 ft 218 kts 95°
2026-04-23 12:11 12.16503 -86.37896 3981 ft 209 kts 95°
2026-04-23 12:11 12.16344 -86.36459 3706 ft 199 kts 95°
2026-04-23 12:11 12.16192 -86.35098 3481 ft 186 kts 95°
2026-04-23 12:12 12.16050 -86.33813 3224 ft 179 kts 94°
2026-04-23 12:12 12.15913 -86.32585 2982 ft 170 kts 94°
2026-04-23 12:12 12.15826 -86.31800 2826 ft 166 kts 95°
2026-04-23 12:12 12.15697 -86.30640 2616 ft 164 kts 95°
2026-04-23 12:13 12.15570 -86.29491 2393 ft 163 kts 96°
2026-04-23 12:13 12.15441 -86.28339 2196 ft 162 kts 96°
2026-04-23 12:13 12.15313 -86.27185 1964 ft 163 kts 96°
2026-04-23 12:13 12.15184 -86.26031 1741 ft 162 kts 96°
2026-04-23 12:14 12.15056 -86.24881 1539 ft 162 kts 96°
2026-04-23 12:14 12.14936 -86.23805 1335 ft 145 kts 95°
2026-04-23 12:14 12.14824 -86.22799 1165 ft 141 kts 97°
2026-04-23 12:14 12.14714 -86.21816 998 ft 139 kts 98°
2026-04-23 12:15 12.14568 -86.20506 750 ft 139 kts 98°
2026-04-23 12:15 12.14496 -86.19858 616 ft 138 kts 100°
2026-04-23 12:15 12.14387 -86.18888 427 ft 139 kts 100°
2026-04-23 12:15 12.14277 -86.17904 254 ft 140 kts 99°
2026-04-23 12:16 12.14166 -86.16995 194 ft 109 kts 96°
2026-04-23 12:16 12.14139 -86.16625 195 ft 11 kts 64°
2026-04-23 12:16 12.14219 -86.16617 199 ft 13 kts 340°
2026-04-23 12:16 12.14278 -86.16689 200 ft 15 kts 282°
2026-04-23 12:17 12.14292 -86.16801 200 ft 17 kts 276°
2026-04-23 12:17 12.14306 -86.16930 208 ft 19 kts 276°
2026-04-23 12:17 12.14333 -86.17004 201 ft 10 kts 321°
2026-04-23 12:17 12.14375 -86.17012 196 ft 0 kts 358°